Погода в Креневе

Россия / Костромская область     58°33′16″N   41°20′58″E
темп.,
°C
ветер,
м/с
пор.,
м/с
влажн.,
%
обл.,
%
осадки,
мм/ч
давл.,
гПа
погр.,
м
24 мая, вт
вт2400:000ссв489886 1.4 1002448
03:00−1ссз4691100 1.4 1003599
06:000ссз469099 0.1 1003598
09:00+1с3579100 0.1 10041003
12:00+3ссв457295 0.1 10061203
15:00+5с356686 0.3 10081142
18:00+5с4683100 0.7 1009784
21:00+1ссз36967 0.9 1011110
25 мая, ср
ср2500:000ссз3796100 0.0 1012152
03:00+1ссз3697100 0.0 1013194
06:00+2ссз469443 0.0 1013275
09:00+3сз4694100 0.0 1014492
12:00+7сз5679100 0.0 1013931
15:00+9сз556442 0.3 10131357
18:00+8сз467431 0.4 1012931
21:00+3зсз338980 0.5 101246
26 мая, чт
чт2600:00+4зсз2588100 0.0 1012103
03:00+1зсз339478 0.0 101156
06:00+4зсз248510 0.0 1010182
09:00+8зсз236131 0.0 10081274
12:00+9зюз2355100 0.1 10071248
15:00+9юз3363100 0.1 10061128
18:00+10юз1265100 0.1 1005952
21:00+6юв2281100 0.1 100322
27 мая, пт
пт2700:00+5вюв2592100 0.0 1001123
03:00+5вюв3897100 0.4 998253
06:00+6в4898100 2.7 996362
09:00+6всв4898100 4.4 995521
12:00+6ссв4697100 0.7 996473
15:00+7ссз4595100 1.1 999578
18:00+9зсз358770 0.1 1000567
21:00+8ю2394100 0.1 100173
28 мая, сб
сб2800:00+7ююз369899 0.0 1001152
03:00+5ю3598100 0.0 1000105
06:00+7юв3995100 0.0 998314
09:00+8в61296100 7.5 993775
12:00+10юз7129497 6.1 991811
15:00+8зюз81591100 6.3 9951331
18:00+10зюз7148496 0.2 9981318
21:00+7зюз512885 0.3 1001524